Showing default

STRIX-4, 60352

Orbit data source: Space-Track

STRIX-4, 60352 is a payload satellite owned by Synspective (JP) in LEO that was launched on Fri, 02 Aug 2024 UTC via an ELECTRON launch vehicle from the Rocket Lab Launch Complex (RLLC). Payload-class satellites include a variety of spacecraft equipped with specific instruments for various scientific and technological missions. These include communications satellites like Starlink; space stations such as the ISS; scientific satellites like the Hubble; Earth observation satellites from companies like Planet Labs, Umbra, and HawkEye 360; GPS; miniature CubeSats for education and research; and military/defense satellites.

Loading next visibility...
Identifier
60352, 2024-137A
Orbit
LEO
Last TLE update
9 hours ago
Origin
Manufacturer
Synspective
Mission
Operational spacecraft
Bus & Motor
STRIX, Unknown motor
Mass
150 kg wet, 150 kg dry
Launch date (UTC)
2024-08-02 (9 months ago)
Launch vehicle
ELECTRON
Launch site
Rocket Lab Launch Complex (RLLC)
Object type
Payload
Rocket body
Debris
Shape & HBR
Unknown
Radar Cross Section
Medium (>0.1 m² and <1 m²)

Expand to show TLE details & history

TLE from 9 hours ago
0 STRIX-4
1 60352U 24137A   25128.90526122  .00006212  00000-0  30306-3 0  9994
2 60352  43.0221  38.6092 0013734 203.3635 156.6591 15.18858078 42299
Epoch: 2025-05-08T21:43Z
Definitive object data (Epoch: 2025-05-08T21:43:34.569Z)
Latitude
-0.00001°
Longitude
-154.2539°
Altitude
517.755 km
Speed
7.602 km/s
True Right ascension
02h 34m 26s
True Declination
0° 00' 00"
Sunlit
Object was in daylight at TLE epoch
Visualization TLE readout
Latitude
22.00585°
Longitude
-1.74603°
Altitude
503.902 km
Speed
7.619 km/s
Apparent Right ascension
09h 37m 13s
Apparent Declination
-27° 56' 46"
Sunlit
Object is in full shadow
Visualization observer readout
Local Sidereal Time
14:24:31
Azimuth
237.425° WSW
Elevation
-5.127°
Doppler factor
1
Orbital elements
Apogee altitude
520.687 km
Perigee altitude
501.763 km
Semi-major axis
6,889.362 km
Eccentricity
0.0013734
Inclination
43.0221°
RAAN
38.6092°
Arg. of periapsis
203.3635°
True anomaly
156.72136°
Mean anomaly
156.6591°
Eccentric anomaly
156.69024°
Mean motion
3.79555 °/min
BSTAR
0.00030306
Orbital period
94.85 mins
Loading maneuver chart data...
Loading SW <> Apogee altitude chart data...
Loading historical data...
Loading historical data...
Loading historical data...
Loading historical data...
Loading historical data...
Loading historical data...
Loading historical data...
Other satellites on launch #137 in the year 2024 (2024-08-02 UTC)

STRIX-4 Visibility forecast

Observer location: undefined°, undefined°

Span
Click to sort rows by Start time (UTC) header in descending order
Start Az.
Max El. time (UTC)
Max El. Az.
Max El.
End time (UTC)
End Az.
6 mins2025-05-09 21:38:42.679Z229.415° WSW2025-05-09 21:40:42.679Z170.086° S41.236°2025-05-09 21:44:42.679Z75.404° E
6 mins2025-05-09 23:17:42.679Z277.806° WNW2025-05-09 23:20:42.679Z9.441° NNE39.557°2025-05-09 23:23:42.679Z70.522° E
6 mins2025-05-10 00:57:42.679Z292.983° NW2025-05-10 01:00:42.679Z46.622° ENE40.654°2025-05-10 01:03:42.679Z92.544° ESE
5 mins2025-05-10 02:37:42.679Z268.807° W2025-05-10 02:39:42.679Z212.434° SW34.706°2025-05-10 02:42:42.679Z140.075° SSE
|